FLOCK 3P-84 (42021 NORAD) Tracking and Keplerian Element Data

This shows tracking and keplerian element data for the satellite.

Feedback or suggestion? Click here.




ElementValue
Catalog42021
NameFLOCK 3P-84
Epoch Orbit17710
Epoch Day114.85626881
Epoch Year2020
RAAN183.6885
Inclination97.3705
Eccentricity0.0009547
Argument of Perigee125.1715
Mean Anonmoly235.0419
Mean Motion15.26629574
Decay Rate2.642E-05
L11 42021U 17008CB 20114.85626881 .00002642 00000-0 10351-3 0 9994
L22 42021 97.3705 183.6885 0009547 125.1715 235.0419 15.26629574177105



Live tracking and technical data element details for FLOCK 3P-84 (NORAD 42021). FLOCK 3P-84 can be tracked NOW for your location showing map with azimuth and elevation plus other details from your city location.







IsCatalogInMostPopularTable: catalog: 42021, numindb: 570
Update: records affected: 1



GetName: 42021 FLOCK 3P-84

Hit Count: updated at: Sat, 24 May 2025 16:47:24 GMT